Location: PACMO
(41.3967°N, 90.3760°W)
Time: 12:05:34
(UTC-06:00)

Amateur Radio Satellites - All Passes

Search period start: 01 March 2017 11:35
Search period end: 02 March 2017 11:35
Location: PACMO, 41.3967°N, 90.3760°W

Satellite Date Start Highest point End Downlink Frequencies (MHz)
Time Altitude Azimuth
BUGSAT 1 01 Mar 11:37:30 11:41:32 70° 76° (ENE) 11:45:40 437.445
QB50P2 01 Mar 11:37:53 11:41:37 30° 264° (W) 11:45:23 145.880/145.840
Gurwin Techsat 1B 01 Mar 11:43:52 11:47:04 16° 61° (ENE) 11:50:16 435.225
Tancredo 1 01 Mar 11:44:57 11:47:57 33° 27° (NNE) 11:50:55 437.200
ESTCUBE 1 01 Mar 11:49:11 11:53:39 71° 285° (WNW) 11:58:05 437.505/2401.250
VELOX 1 01 Mar 11:54:43 11:58:56 42° 99° (E) 12:03:07 145.980
Oscar 19 01 Mar 11:59:49 12:04:31 38° 69° (ENE) 12:09:14 437.125/150
LO-87 01 Mar 12:03:18 12:05:47 18° 292° (WNW) 12:08:16 145.935 - 145.965
AO-85 01 Mar 12:07:02 12:10:57 76° 239° (WSW) 12:14:55 145.980
BEESAT 3 01 Mar 12:11:07 12:12:13 11° 38° (NE) 12:13:20 437.485
50 SAT 01 Mar 12:11:26 12:14:45 42° 99° (E) 12:18:04 437.505
YUBILEINY 01 Mar 12:18:45 12:23:59 17° 300° (WNW) 12:29:15 435.215
ITAMSAT 1 01 Mar 12:47:16 12:48:51 11° 57° (ENE) 12:50:27 435.822/435.867
BEESAT 2 01 Mar 12:58:48 13:00:55 14° 41° (NE) 13:03:01 435.950
SPROUT 01 Mar 13:04:25 13:08:26 38° 289° (WNW) 13:12:25 437.525
DX 1 01 Mar 13:07:06 13:11:28 72° 285° (WNW) 13:15:47 434.975-435.025
ISS 01 Mar 13:07:07 13:10:17 46° 221° (SW) 13:13:27 437.550
UKube-1 01 Mar 13:09:49 13:14:09 87° 105° (ESE) 13:18:28 .
Gurwin Techsat 1B 01 Mar 13:21:07 13:26:24 70° 258° (WSW) 13:31:44 435.225
Tancredo 1 01 Mar 13:21:17 13:24:10 30° 224° (SW) 13:27:03 437.200
VELOX 1 01 Mar 13:31:58 13:35:04 19° 295° (WNW) 13:38:10 145.980
AO-7 01 Mar 13:32:25 13:39:55 39° 60° (ENE) 13:47:25 .
Oscar 19 01 Mar 13:39:38 13:43:54 26° 265° (W) 13:48:11 437.125/150
50 SAT 01 Mar 13:46:15 13:47:29 12° 295° (WNW) 13:48:43 437.505
BEESAT 3 01 Mar 13:46:29 13:50:31 78° 57° (ENE) 13:54:31 437.485
ITAMSAT 1 01 Mar 14:22:15 14:27:27 82° 77° (ENE) 14:32:43 435.822/435.867
PCSat 01 Mar 14:34:31 14:39:32 40° 112° (ESE) 14:44:35 145.827
BEESAT 2 01 Mar 14:35:08 14:39:13 78° 239° (WSW) 14:43:14 435.950
RS-15 01 Mar 14:41:08 14:49:10 21° 98° (E) 14:57:19 29.354- 29.394
MOZHAYETS 4 01 Mar 14:45:56 14:49:35 23° 94° (E) 14:53:12
ITUPSAT 1 01 Mar 15:02:42 15:07:32 88° 103° (ESE) 15:12:18 437.325
BEESAT 01 Mar 15:06:05 15:10:54 84° 284° (WNW) 15:15:40 436.000
AO-7 01 Mar 15:24:23 15:32:27 51° 259° (WSW) 15:40:32 .
NO-84 01 Mar 15:28:32 15:31:36 82° 137° (SE) 15:34:59 435.350 FM
CUBESAT XI-V 01 Mar 15:58:06 16:01:35 21° 93° (E) 16:05:03 437.345
ITAMSAT 1 01 Mar 16:05:43 16:07:33 12° 271° (W) 16:09:22 435.822/435.867
CUTE-I 01 Mar 16:06:48 16:10:02 17° 60° (ENE) 16:13:17 437.470
XW-2F 01 Mar 16:17:29 16:19:19 13° 65° (ENE) 16:21:10 145.980 - 146.000
PCSat 01 Mar 16:18:14 16:23:01 31° 310° (NW) 16:27:50 145.827
KKS-1 01 Mar 16:18:24 16:22:47 52° 100° (E) 16:27:10 437.445
MOZHAYETS 4 01 Mar 16:22:38 16:26:48 35° 290° (WNW) 16:30:56
XW-2D 01 Mar 16:24:23 16:26:53 17° 67° (ENE) 16:29:23 145.860 - 145.880
XW-2B 01 Mar 16:29:20 16:32:02 18° 67° (ENE) 16:34:44 145.730 - 145.750
NUDT-PHONESAT 01 Mar 16:33:02 16:35:27 16° 67° (ENE) 16:37:52 437.300
XW-2C 01 Mar 16:37:45 16:40:49 23° 69° (ENE) 16:43:55 145.795 - 145.815
STARS 01 Mar 16:39:07 16:43:17 39° 98° (E) 16:47:25 437.465
ITUPSAT 1 01 Mar 16:43:15 16:44:36 11° 301° (WNW) 16:45:58 437.325
RS-15 01 Mar 16:47:45 16:59:41 84° 119° (ESE) 17:12:07 29.354- 29.394
HO-68 01 Mar 16:52:10 16:56:07 16° 52° (NE) 17:00:05 435.675
LilacSat-2 01 Mar 16:59:06 17:02:47 42° 73° (ENE) 17:06:29 437.200
M-CUBED/EXP-1 PRIME 01 Mar 17:05:12 17:08:35 26° 102° (ESE) 17:12:09 437.505
NO-84 01 Mar 17:07:26 17:09:42 17° 338° (NNW) 17:12:07 435.350 FM
DOVE 4 01 Mar 17:20:06 17:24:14 83° 76° (ENE) 17:28:29 437.250
CUTE 1.7 + AOD 2 01 Mar 17:34:14 17:36:14 13° 64° (ENE) 17:38:16 437.475
CUBESAT XI-V 01 Mar 17:34:50 17:39:04 38° 289° (WNW) 17:43:17 437.345
KAITUO 1B 01 Mar 17:36:16 17:40:05 83° 258° (WSW) 17:43:55 145.475/437.950
CUTE-I 01 Mar 17:44:09 17:49:28 71° 258° (WSW) 17:54:50 437.470
XW-2F 01 Mar 17:49:21 17:53:04 46° 261° (W) 17:56:48 145.980 - 146.000
KKS-1 01 Mar 17:56:12 17:58:55 16° 297° (WNW) 18:01:37 437.445
XW-2D 01 Mar 17:57:15 18:00:48 35° 263° (W) 18:04:23 145.860 - 145.880
XW-2A 01 Mar 18:01:53 18:04:55 31° 72° (ENE) 18:08:01 145.665 - 145.685
XW-2B 01 Mar 18:02:32 18:06:00 31° 263° (W) 18:09:29 145.730 - 145.750
NUDT-PHONESAT 01 Mar 18:05:39 18:09:06 34° 263° (W) 18:12:36 437.300
XW-2C 01 Mar 18:11:43 18:14:55 25° 265° (W) 18:18:09 145.795 - 145.815
STARS 01 Mar 18:16:05 18:19:21 20° 295° (WNW) 18:22:37 437.465
STRAND 1 01 Mar 18:20:02 18:23:21 17° 91° (E) 18:26:38 437.568
SEEDS 01 Mar 18:20:25 18:23:58 27° 69° (ENE) 18:27:30 437.485
LilacSat-2 01 Mar 18:35:18 18:37:16 13° 269° (W) 18:39:14 437.200
HO-68 01 Mar 18:35:33 18:42:43 77° 71° (ENE) 18:49:53 435.675
M-CUBED/EXP-1 PRIME 01 Mar 18:39:40 18:42:57 26° 295° (WNW) 18:46:27 437.505
CUBEBUG 2 01 Mar 18:40:52 18:44:53 32° 69° (ENE) 18:49:01 437.445
RS-15 01 Mar 19:02:46 19:13:44 37° 326° (NW) 19:24:58 29.354- 29.394
CUTE 1.7 + AOD 2 01 Mar 19:07:22 19:11:35 59° 260° (W) 19:15:48 437.475
UWE-3 01 Mar 19:07:39 19:11:50 38° 71° (ENE) 19:16:08 435.000/436.395/437.385
ZACube-1 01 Mar 19:17:48 19:21:42 30° 69° (ENE) 19:25:41 437.345
AAUSAT CUBESAT 2 01 Mar 19:29:42 19:33:51 80° 75° (ENE) 19:38:01 437.432
XW-2A 01 Mar 19:36:02 19:37:48 14° 268° (W) 19:39:35 145.665 - 145.685
SEEDS 01 Mar 19:56:03 19:59:35 25° 265° (W) 20:03:07 437.485
STRAND 1 01 Mar 19:57:49 20:02:53 57° 288° (WNW) 20:07:54 437.568
AO-73 01 Mar 20:02:37 20:07:05 81° 77° (ENE) 20:11:41 145.935
Oscar 11 01 Mar 20:03:14 20:07:34 72° 75° (ENE) 20:11:55 .
CUBEBUG 2 01 Mar 20:17:48 20:21:30 25° 266° (W) 20:25:19 437.445
DELFI C3 01 Mar 20:18:51 20:22:21 31° 71° (ENE) 20:25:51 145.870
NO-84 01 Mar 20:25:11 20:27:40 16° 21° (NNE) 20:30:17 435.350 FM
HO-68 01 Mar 20:26:15 20:31:06 19° 269° (W) 20:36:00 435.675
YUBILEINY 01 Mar 20:27:08 20:35:38 52° 76° (ENE) 20:44:01 435.215
SO-50 01 Mar 20:38:25 20:42:56 50° 118° (ESE) 20:47:25 436.795
UWE-3 01 Mar 20:45:01 20:48:25 21° 268° (W) 20:51:53 435.000/436.395/437.385
ZACube-1 01 Mar 20:54:08 20:57:56 27° 265° (W) 21:01:48 437.345
LO-87 01 Mar 21:07:13 21:08:45 12° 65° (ENE) 21:10:17 145.935 - 145.965
O/OREOS (USA 219) 01 Mar 21:10:46 21:14:52 37° 105° (ESE) 21:19:01 437.305
ESTCUBE 1 01 Mar 21:15:17 21:16:39 11° 61° (ENE) 21:18:03 437.505/2401.250
PRISM 01 Mar 21:20:38 21:24:38 50° 100° (E) 21:28:36 437.425
RS-15 01 Mar 21:22:04 21:31:20 23° 0° (N) 21:40:33 29.354- 29.394
TIGRISAT 01 Mar 21:26:03 21:29:53 25° 94° (E) 21:33:40 435.000
UNISAT 6 01 Mar 21:27:13 21:31:12 27° 95° (E) 21:35:08 437.425
DELFI C3 01 Mar 21:54:21 21:57:11 19° 266° (W) 22:00:03 145.870
NO-84 01 Mar 22:02:00 22:05:57 62° 39° (NE) 22:10:11 435.350 FM
SO-50 01 Mar 22:19:57 22:23:39 23° 316° (NW) 22:27:19 436.795
SPROUT 01 Mar 22:23:31 22:25:57 15° 64° (ENE) 22:28:23 437.525
YUBILEINY 01 Mar 22:24:30 22:32:02 34° 276° (W) 22:39:31 435.215
FO-29 01 Mar 22:33:19 22:40:44 62° 100° (E) 22:47:18 435.910
LO-87 01 Mar 22:38:29 22:41:50 40° 261° (W) 22:45:13 145.935 - 145.965
DUCHIFAT 1 01 Mar 22:44:48 22:46:28 12° 90° (E) 22:48:09 145.980
50 SAT 01 Mar 22:46:13 22:48:36 17° 68° (ENE) 22:50:58 437.505
ESTCUBE 1 01 Mar 22:48:18 22:52:49 78° 257° (WSW) 22:57:20 437.505/2401.250
O/OREOS (USA 219) 01 Mar 22:50:52 22:54:23 22° 303° (WNW) 22:57:57 437.305
VELOX 1 01 Mar 22:51:55 22:55:57 37° 70° (ENE) 23:00:00 145.980
PRISM 01 Mar 22:57:20 22:59:29 14° 296° (WNW) 23:01:39 437.425
EO-79 01 Mar 23:00:13 23:03:35 22° 94° (E) 23:06:55 145.935-145.965
TIGRISAT 01 Mar 23:02:22 23:06:35 34° 291° (WNW) 23:10:44 435.000
UNISAT 6 01 Mar 23:03:46 23:07:52 31° 292° (WNW) 23:11:54 437.425
NANOSAT C BR1 01 Mar 23:13:39 23:17:22 28° 96° (E) 23:21:03 145.865
POLYITAN 1 01 Mar 23:18:55 23:22:54 35° 97° (E) 23:26:50 437.675
AIST 2D 01 Mar 23:21:40 23:25:13 71° 101° (E) 23:28:44 435.315
BUGSAT 1 01 Mar 23:21:56 23:22:38 10° 90° (E) 23:23:20 437.445
QB50P2 01 Mar 23:22:03 23:26:08 41° 98° (E) 23:30:11 145.880/145.840
PCSat 01 Mar 23:22:04 23:27:03 35° 51° (NE) 23:31:59 145.827
RS-15 01 Mar 23:37:38 23:48:54 38° 35° (NE) 23:59:46 29.354- 29.394
NO-84 01 Mar 23:40:24 23:43:23 19° 234° (SW) 23:46:28 435.350 FM
SPROUT 01 Mar 23:57:17 00:01:25 50° 260° (W) 00:05:37 437.525
DX 1 02 Mar 00:02:16 00:06:35 84° 259° (W) 00:10:56 434.975-435.025
UKube-1 02 Mar 00:03:57 00:08:13 73° 75° (ENE) 00:12:31 .
Oscar 19 02 Mar 00:13:01 00:15:09 12° 89° (E) 00:17:16 437.125/150
DUCHIFAT 1 02 Mar 00:18:18 00:22:30 58° 286° (WNW) 00:26:40 145.980
50 SAT 02 Mar 00:18:32 00:21:31 26° 263° (W) 00:24:30 437.505
FO-29 02 Mar 00:19:04 00:25:07 28° 300° (WNW) 00:30:42 435.910
VELOX 1 02 Mar 00:29:19 00:32:31 20° 266° (W) 00:35:43 145.980
ITUPSAT 1 02 Mar 00:34:51 00:36:51 13° 60° (ENE) 00:38:52 437.325
EO-79 02 Mar 00:35:33 00:39:22 32° 290° (WNW) 00:43:10 145.935-145.965
BEESAT 02 Mar 00:37:33 00:39:51 14° 61° (ENE) 00:42:11 436.000
NANOSAT C BR1 02 Mar 00:49:29 00:52:58 25° 292° (WNW) 00:56:26 145.865
BUGSAT 1 02 Mar 00:54:10 00:58:25 67° 285° (WNW) 01:02:37 437.445
POLYITAN 1 02 Mar 00:55:15 00:58:27 21° 294° (WNW) 01:01:37 437.675
QB50P2 02 Mar 00:58:41 01:01:35 18° 295° (WNW) 01:04:29 145.880/145.840
PCSat 02 Mar 01:05:31 01:10:25 35° 250° (WSW) 01:15:17 145.827
Gurwin Techsat 1B 02 Mar 01:37:17 01:42:25 46° 99° (E) 01:47:30 435.225
MOZHAYETS 4 02 Mar 01:47:54 01:51:32 23° 66° (ENE) 01:55:10
Oscar 19 02 Mar 01:49:53 01:55:01 76° 286° (WNW) 02:00:07 437.125/150
RS-15 02 Mar 01:50:30 02:02:52 82° 241° (WSW) 02:14:38 29.354- 29.394
ITUPSAT 1 02 Mar 02:09:12 02:14:00 80° 256° (WSW) 02:18:51 437.325
BEESAT 02 Mar 02:12:15 02:17:01 73° 257° (WSW) 02:21:50 436.000
AO-85 02 Mar 02:21:19 02:25:25 33° 116° (ESE) 02:29:17 145.980
ITAMSAT 1 02 Mar 02:35:29 02:39:59 28° 96° (E) 02:44:27 435.822/435.867
CUBESAT XI-V 02 Mar 03:01:33 03:05:05 22° 66° (ENE) 03:08:37 437.345
KKS-1 02 Mar 03:16:16 03:20:31 48° 72° (ENE) 03:24:48 437.445
Gurwin Techsat 1B 02 Mar 03:17:53 03:22:03 24° 296° (WNW) 03:26:12 435.225
MOZHAYETS 4 02 Mar 03:24:11 03:28:28 36° 263° (W) 03:32:46
AO-7 02 Mar 03:25:30 03:33:39 56° 103° (ESE) 03:41:44 .
STARS 02 Mar 03:35:40 03:39:38 35° 69° (ENE) 03:43:37 437.465
BEESAT 3 02 Mar 03:38:50 03:40:18 12° 108° (ESE) 03:41:46 437.485
M-CUBED/EXP-1 PRIME 02 Mar 03:52:09 03:54:55 27° 65° (ENE) 03:57:45 437.505
AO-85 02 Mar 04:02:01 04:05:50 27° 311° (NW) 04:09:27 145.980
RS-15 02 Mar 04:05:26 04:13:18 21° 263° (W) 04:21:01 29.354- 29.394
ITAMSAT 1 02 Mar 04:14:44 04:19:28 36° 292° (WNW) 04:24:11 435.822/435.867
BEESAT 2 02 Mar 04:27:45 04:30:20 17° 110° (ESE) 04:32:56 435.950
CUBESAT XI-V 02 Mar 04:37:52 04:42:12 38° 262° (W) 04:46:33 437.345
KKS-1 02 Mar 04:54:41 04:57:21 16° 268° (W) 05:00:00 437.445
SO-50 02 Mar 05:09:39 05:13:59 44° 52° (NE) 05:18:16 436.795
STARS 02 Mar 05:12:42 05:16:02 21° 266° (W) 05:19:24 437.465
BEESAT 3 02 Mar 05:13:30 05:17:22 59° 305° (NW) 05:21:17 437.485
DOVE 4 02 Mar 05:18:18 05:22:17 24° 94° (E) 05:26:25 437.250
AO-7 02 Mar 05:18:47 05:26:02 35° 302° (WNW) 05:33:15 .
XW-2F 02 Mar 05:22:23 05:24:54 17° 93° (E) 05:27:23 145.980 - 146.000
M-CUBED/EXP-1 PRIME 02 Mar 05:27:36 05:29:29 15° 261° (W) 05:31:24 437.505
XW-2D 02 Mar 05:30:00 05:33:01 22° 94° (E) 05:36:00 145.860 - 145.880
XW-2B 02 Mar 05:35:05 05:38:15 24° 95° (E) 05:41:23 145.730 - 145.750
STRAND 1 02 Mar 05:35:40 05:39:51 26° 65° (ENE) 05:44:02 437.568
NUDT-PHONESAT 02 Mar 05:36:30 05:39:22 21° 94° (E) 05:42:13 437.300
XW-2C 02 Mar 05:43:45 05:47:12 31° 97° (E) 05:50:35 145.795 - 145.815
ISS 02 Mar 05:46:42 05:49:55 49° 139° (SE) 05:53:08 437.550
Tancredo 1 02 Mar 05:58:10 06:01:23 69° 143° (SE) 06:04:38 437.200
CUTE-I 02 Mar 06:01:09 06:06:20 46° 99° (E) 06:11:29 437.470
BEESAT 2 02 Mar 06:03:59 06:07:46 42° 308° (NW) 06:11:36 435.950
HO-68 02 Mar 06:05:57 06:09:07 13° 88° (E) 06:12:16 435.675
LilacSat-2 02 Mar 06:06:13 06:10:02 65° 100° (E) 06:13:48 437.200
KAITUO 1B 02 Mar 06:41:30 06:45:12 56° 286° (WNW) 06:48:50 145.475/437.950
SO-50 02 Mar 06:50:50 06:54:07 20° 249° (WSW) 06:57:24 436.795
CUTE 1.7 + AOD 2 02 Mar 06:52:38 06:56:00 23° 94° (E) 06:59:19 437.475
DOVE 4 02 Mar 06:55:31 07:00:01 38° 289° (WNW) 07:04:43 437.250
XW-2F 02 Mar 06:55:44 06:59:09 32° 289° (WNW) 07:02:30 145.980 - 146.000
XW-2A 02 Mar 06:56:13 06:59:24 33° 98° (E) 07:02:32 145.665 - 145.685
XW-2D 02 Mar 07:04:02 07:07:10 25° 291° (WNW) 07:10:16 145.860 - 145.880
XW-2B 02 Mar 07:09:19 07:12:20 22° 291° (WNW) 07:15:19 145.730 - 145.750
NUDT-PHONESAT 02 Mar 07:10:08 07:13:16 25° 290° (WNW) 07:16:23 437.300
AAUSAT CUBESAT 2 02 Mar 07:13:42 07:15:18 12° 90° (E) 07:16:53 437.432
STRAND 1 02 Mar 07:13:59 07:18:48 40° 262° (W) 07:23:39 437.568
XW-2C 02 Mar 07:18:33 07:21:09 18° 293° (WNW) 07:23:45 145.795 - 145.815
O/OREOS (USA 219) 02 Mar 07:20:10 07:24:46 75° 66° (ENE) 07:29:22 437.305
ISS 02 Mar 07:23:41 07:26:33 26° 337° (NNW) 07:29:24 437.550
Tancredo 1 02 Mar 07:35:17 07:37:55 22° 340° (NNW) 07:40:33 437.200
SEEDS 02 Mar 07:38:53 07:42:56 49° 99° (E) 07:46:58 437.485
CUTE-I 02 Mar 07:41:51 07:46:03 24° 296° (WNW) 07:50:16 437.470
HO-68 02 Mar 07:50:39 07:57:51 81° 105° (ESE) 08:05:00 435.675
AO-73 02 Mar 07:51:55 07:54:40 16° 91° (E) 07:57:23 145.935
Oscar 11 02 Mar 07:52:07 07:54:07 13° 90° (E) 07:56:08 .
CUBEBUG 2 02 Mar 08:07:23 08:12:09 72° 102° (ESE) 08:16:48 437.445
PRISM 02 Mar 08:09:55 08:13:37 35° 71° (ENE) 08:17:20 437.425
TIGRISAT 02 Mar 08:24:48 08:28:20 22° 66° (ENE) 08:31:55 435.000
UNISAT 6 02 Mar 08:26:03 08:29:45 25° 67° (ENE) 08:33:31 437.425
CUTE 1.7 + AOD 2 02 Mar 08:28:10 08:31:50 29° 290° (WNW) 08:35:28 437.475
XW-2A 02 Mar 08:30:00 08:31:52 14° 293° (WNW) 08:33:43 145.665 - 145.685
UWE-3 02 Mar 08:33:06 08:37:47 84° 105° (ESE) 08:42:19 435.000/436.395/437.385
ZACube-1 02 Mar 08:41:32 08:46:01 61° 99° (E) 08:50:24 437.345
FO-29 02 Mar 08:44:24 08:50:48 32° 62° (ENE) 08:57:28 435.910
AAUSAT CUBESAT 2 02 Mar 08:47:04 08:51:05 53° 286° (WNW) 08:55:04 437.432
ISS 02 Mar 09:02:01 09:03:52 14° 357° (N) 09:05:45 437.550
O/OREOS (USA 219) 02 Mar 09:02:37 09:03:29 10° 263° (W) 09:04:22 437.305
Tancredo 1 02 Mar 09:13:20 09:15:04 14° 0° (N) 09:16:47 437.200
SEEDS 02 Mar 09:15:56 09:18:12 14° 296° (WNW) 09:20:28 437.485
Oscar 11 02 Mar 09:26:22 09:30:35 54° 287° (WNW) 09:34:47 .
AO-73 02 Mar 09:26:50 09:31:10 48° 288° (WNW) 09:35:24 145.935
YUBILEINY 02 Mar 09:27:39 09:36:14 60° 91° (E) 09:44:48 435.215
DELFI C3 02 Mar 09:30:01 09:33:50 50° 99° (E) 09:37:39 145.870
HO-68 02 Mar 09:39:45 09:44:46 21° 304° (NW) 09:49:47 435.675
CUBEBUG 2 02 Mar 09:45:52 09:48:07 13° 298° (WNW) 09:50:21 437.445
PRISM 02 Mar 09:46:14 09:49:01 18° 266° (W) 09:51:49 437.425
EO-79 02 Mar 09:53:10 09:55:59 18° 65° (ENE) 09:58:49 145.935-145.965
AIST 2D 02 Mar 09:56:24 09:59:21 25° 71° (ENE) 10:02:20 435.315
TIGRISAT 02 Mar 10:00:32 10:04:45 37° 263° (W) 10:09:06 435.000
UNISAT 6 02 Mar 10:02:09 10:06:16 34° 264° (W) 10:10:30 437.425
NANOSAT C BR1 02 Mar 10:06:02 10:09:16 22° 67° (ENE) 10:12:33 145.865
LO-87 02 Mar 10:06:23 10:08:28 15° 93° (E) 10:10:32 145.935 - 145.965
POLYITAN 1 02 Mar 10:11:34 10:15:10 27° 68° (ENE) 10:18:48 437.675
UWE-3 02 Mar 10:12:11 10:13:28 11° 300° (WNW) 10:14:46 435.000/436.395/437.385
QB50P2 02 Mar 10:14:37 10:18:22 31° 70° (ENE) 10:22:09 145.880/145.840
ZACube-1 02 Mar 10:19:24 10:21:46 14° 297° (WNW) 10:24:06 437.345
FO-29 02 Mar 10:28:05 10:35:16 59° 261° (W) 10:43:02 435.910
ISS 02 Mar 10:38:45 10:41:18 20° 18° (NNE) 10:43:51 437.550
ESTCUBE 1 02 Mar 10:41:20 10:44:47 21° 94° (E) 10:48:12 437.505/2401.250
Tancredo 1 02 Mar 10:49:34 10:52:12 22° 20° (NNE) 10:54:50 437.200
AO-85 02 Mar 10:52:23 10:55:45 27° 48° (NE) 10:59:09 145.980
DELFI C3 02 Mar 11:06:24 11:08:12 13° 296° (WNW) 11:09:59 145.870
DUCHIFAT 1 02 Mar 11:09:33 11:13:46 81° 257° (WSW) 11:18:02 145.980
Gurwin Techsat 1B 02 Mar 11:23:53 11:24:37 10° 56° (NE) 11:25:21 435.225
EO-79 02 Mar 11:27:24 11:31:25 42° 261° (W) 11:35:29 145.935-145.965
AIST 2D 02 Mar 11:29:58 11:32:33 19° 266° (W) 11:35:10 435.315
